Location: Keewatin
(47.4004°N, 93.0827°W)
Time: 15:12:57
(UTC+00:00)

Envisat - Pass Details

Date: 15 December 2019
Orbit: 764 x 766 km, 98.1° (Epoch: 18 January)

Event Time Altitude Azimuth Distance (km) Brightness Sun altitude
Rises 01:08:37 0° 201° (SSW) 3,221 6.6 -27.1°
Reaches altitude 10° 01:11:21 10° 215° (SW) 2,300 5.9 -27.5°
Maximum altitude 01:15:23 23° 268° (W) 1,572 5.3 -28.2°
Drops below altitude 10° 01:19:26 10° 321° (NW) 2,314 5.9 -28.9°
Sets 01:22:12 0° 335° (NNW) 3,245 6.5 -29.4°
